TAPIOLES Weather Reports


time (UTC)temp
F
wind
direction
speed
knots
gust
knots
rain 1hr
in
rain 24hr
in
rain mn
in
humidity
%
barometer
mb
20260507151506 66 102 10.4 18.2 0.00 0.08 0.06 64 1015.4
20260507144505 66 107 11.3 20.9 0.00 0.08 0.06 65 1015.3
20260507143006 67 104 10.4 20.9 0.00 0.08 0.06 63 1015.4
20260507141505 66 117 9.6 20.0 0.00 0.08 0.06 65 1015.3
20260507140006 67 114 13.0 19.1 0.00 0.08 0.06 64 1015.4
20260507134505 67 99 12.2 20.9 0.00 0.08 0.06 68 1015.9
20260507133006 68 107 9.6 20.9 0.00 0.08 0.06 68 1015.8
20260507131505 68 111 14.8 20.0 0.00 0.08 0.06 67 1015.7
20260507130005 68 115 9.6 17.4 0.00 0.08 0.06 68 1015.8
20260507123005 68 106 10.4 17.4 0.00 0.08 0.06 66 1016.0
20260507121505 67 110 9.6 14.8 0.00 0.08 0.06 66 1015.8
20260507120006 67 102 11.3 15.6 0.00 0.08 0.06 68 1016.2
20260507114506 67 106 13.0 14.8 0.00 0.08 0.06 67 1016.1
20260507113006 67 117 9.6 13.9 0.00 0.08 0.06 69 1016.5
20260507111506 67 116 3.5 12.2 0.00 0.08 0.06 69 1016.5
20260507110006 67 101 5.2 13.0 0.00 0.08 0.06 67 1016.6
20260507104505 67 114 7.0 13.0 0.00 0.08 0.06 72 1016.7
20260507101505 64 125 7.0 11.3 0.00 0.08 0.06 72 1016.7
20260507100006 65 121 8.7 11.3 0.00 0.08 0.06 73 1017.1
20260507094506 65 122 1.7 9.6 0.00 0.08 0.06 70 1016.8
20260507093005 65 74 6.1 7.8 0.00 0.08 0.06 71 1016.8
20260507091504 63 76 4.3 7.8 0.00 0.08 0.06 73 1016.7
20260507090007 63 92 3.5 7.0 0.00 0.08 0.06 73 1016.9
20260507084505 63 60 2.6 5.2 0.00 0.08 0.06 74 1016.6
20260507081505 61 101 1.7 5.2 0.00 0.08 0.06 79 1016.8
20260507080006 60 135 0.9 3.5 0.00 0.08 0.06 80 1017.2
20260507073005 56 282 0.9 1.7 0.00 0.08 0.06 99 1017.1
20260507071505 54 282 0.9 1.7 0.00 0.08 0.06 99 1016.9
20260507064505 51 295 0.9 1.7 0.00 0.08 0.06 99 1016.8
20260507063005 50 289 0.0 1.7 0.00 0.08 0.06 99 1016.9
20260507060005 48 272 0.0 1.7 0.00 0.08 0.06 99 1016.5
20260507054505 47 287 1.7 3.5 0.00 0.08 0.06 99 1016.5
20260507053005 47 303 1.7 3.5 0.00 0.08 0.06 99 1016.5
20260507051505 47 327 0.9 3.5 0.00 0.08 0.06 99 1016.6
20260507050005 47 298 1.7 1.7 0.00 0.08 0.06 99 1016.2
20260507044505 46 305 0.9 3.5 0.00 0.08 0.06 99 1016.4
20260507043005 46 284 0.0 3.5 0.00 0.08 0.06 99 1016.4
20260507041504 46 270 0.0 1.7 0.00 0.08 0.06 99 1016.3
20260507040005 47 294 0.9 1.7 0.00 0.08 0.06 99 1016.5
20260507031504 47 293 0.0 1.7 0.00 0.08 0.06 99 1016.1
20260507030005 47 297 1.7 3.5 0.01 0.08 0.06 99 1016.4
20260507024505 48 303 0.9 3.5 0.01 0.08 0.06 99 1016.3
20260507023004 48 333 0.9 3.5 0.01 0.08 0.06 99 1016.5
20260507020004 49 337 1.7 3.5 0.00 0.07 0.05 99 1016.6
20260507014504 50 327 1.7 3.5 0.00 0.07 0.05 99 1016.7
20260507013005 50 342 1.7 3.5 0.00 0.07 0.05 99 1016.5
20260507011504 51 289 1.7 3.5 0.02 0.07 0.05 99 1016.9
20260507010005 51 270 0.0 1.7 0.04 0.07 0.05 99 1016.9
20260507004504 51 294 0.9 1.7 0.05 0.07 0.05 99 1017.1
20260507003005 51 340 0.9 1.7 0.05 0.07 0.05 99 1017.5
20260507001505 51 279 0.0 3.5 0.02 0.05 0.02 99 1017.4
20260506234505 51 293 1.7 3.5 0.00 0.02 0.00 99 1017.8
20260506233006 52 299 0.9 3.5 0.00 0.02 0.00 99 1017.5
20260506231504 52 286 0.9 1.7 0.00 0.02 0.00 99 1017.5
20260506230004 52 333 0.0 3.5 0.00 0.02 0.00 99 1017.5
20260506223004 52 301 1.7 1.7 0.00 0.02 0.00 99 1017.6
20260506221505 52 2 1.7 5.2 0.00 0.02 0.00 99 1017.7
20260506214504 52 56 0.0 1.7 0.00 0.02 0.02 99 1017.7
20260506211504 52 355 1.7 1.7 0.00 0.02 0.02 99 1017.7
20260506210004 53 350 0.9 3.5 0.00 0.02 0.02 99 1017.7
20260506204504 53 32 0.9 1.7 0.00 0.02 0.02 99 1017.5
20260506203004 53 290 0.0 1.7 0.00 0.02 0.02 99 1017.2
20260506201504 53 42 0.0 3.5 0.01 0.02 0.02 99 1016.7
20260506200004 53 302 0.9 1.7 0.02 0.02 0.02 99 1016.7
20260506194504 53 21 1.7 5.2 0.02 0.02 0.02 99 1016.6
20260506193004 54 349 1.7 3.5 0.02 0.02 0.02 97 1016.5
20260506191504 54 58 0.0 1.7 0.01 0.02 0.01 97 1016.6
20260506184504 55 75 0.9 1.7 0.00 0.02 0.00 93 1016.0
20260506181504 56 118 2.6 7.8 0.00 0.04 0.00 91 1015.8
20260506180005 56 139 7.0 9.6 0.00 0.04 0.00 89 1015.6
20260506174503 56 114 8.7 12.2 0.00 0.04 0.00 90 1015.3
20260506173004 56 123 9.6 13.0 0.00 0.04 0.00 88 1015.1
20260506171504 56 126 9.6 15.6 0.00 0.04 0.00 86 1014.9
20260506170004 56 129 8.7 15.6 0.00 0.04 0.00 86 1015.0
20260506164504 57 132 12.2 15.6 0.00 0.04 0.00 87 1014.6
20260506163004 57 126 8.7 12.2 0.00 0.04 0.00 86 1014.6
20260506161504 58 104 11.3 18.2 0.00 0.04 0.00 82 1014.5
20260506160004 59 79 9.6 15.6 0.00 0.04 0.00 80 1014.1
20260506154504 59 74 7.0 12.2 0.00 0.04 0.00 78 1014.1
20260506153005 59 90 9.6 13.0 0.00 0.04 0.00 78 1013.9